Time,TemperatureF,DewpointF,PressureIn,WindDirection,WindDirectionDegrees,WindSpeedMPH,WindSpeedGustMPH,Humidity,HourlyPrecipIn,Conditions,Clouds,dailyrainin,SolarRadiationWatts/m^2,SoftwareType,DateUTC
2013-01-06 14:33:00,25.0,18.0,-100.00,WSW,257,8.0,18.0,74,0.00,,,0.00,198.000000,,2013-01-06 21:33:00,
2013-01-06 14:43:00,25.0,18.0,-100.00,WSW,257,8.0,18.0,74,0.00,,,0.00,198.000000,,2013-01-06 21:43:00,
2013-01-06 14:53:00,25.0,18.0,-100.00,WSW,257,8.0,18.0,74,0.00,,,0.00,198.000000,,2013-01-06 21:53:00,
2013-01-06 15:02:00,25.0,18.0,-100.00,WSW,257,8.0,18.0,74,0.00,,,0.00,198.000000,,2013-01-06 22:02:00,
2013-01-06 15:33:00,24.0,20.0,-100.00,West,267,9.0,15.0,84,0.00,,,0.00,153.000000,,2013-01-06 22:33:00,
2013-01-06 15:43:00,24.0,20.0,-100.00,West,267,9.0,15.0,84,0.00,,,0.00,153.000000,,2013-01-06 22:43:00,
2013-01-06 15:52:00,24.0,20.0,-100.00,West,267,9.0,15.0,84,0.00,,,0.00,153.000000,,2013-01-06 22:52:00,
2013-01-06 16:02:00,24.0,20.0,-100.00,West,267,9.0,15.0,84,0.00,,,0.00,153.000000,,2013-01-06 23:02:00,
2013-01-06 16:33:00,22.0,19.0,-100.00,West,266,7.0,17.0,88,0.00,,,0.00,85.000000,,2013-01-06 23:33:00,
2013-01-06 16:43:00,22.0,19.0,-100.00,West,266,7.0,17.0,88,0.00,,,0.00,85.000000,,2013-01-06 23:43:00,
2013-01-06 16:53:00,22.0,19.0,-100.00,West,266,7.0,17.0,88,0.00,,,0.00,85.000000,,2013-01-06 23:53:00,
2013-01-06 17:02:00,22.0,19.0,-100.00,West,266,7.0,17.0,88,0.00,,,0.00,85.000000,,2013-01-07 00:02:00,
2013-01-06 17:33:00,21.0,18.0,-100.00,West,274,9.0,16.0,89,0.00,,,0.00,18.000000,,2013-01-07 00:33:00,
2013-01-06 17:43:00,21.0,18.0,-100.00,West,274,9.0,16.0,89,0.00,,,0.00,18.000000,,2013-01-07 00:43:00,
2013-01-06 17:53:00,21.0,18.0,-100.00,West,274,9.0,16.0,89,0.00,,,0.00,18.000000,,2013-01-07 00:53:00,
2013-01-06 18:02:00,21.0,18.0,-100.00,West,274,9.0,16.0,89,0.00,,,0.00,18.000000,,2013-01-07 01:02:00,
2013-01-06 18:32:00,20.0,18.0,-100.00,West,270,7.0,14.0,90,0.00,,,0.00,1.000000,,2013-01-07 01:32:00,
2013-01-06 18:43:00,20.0,18.0,-100.00,West,270,7.0,14.0,90,0.00,,,0.00,1.000000,,2013-01-07 01:43:00,
2013-01-06 18:53:00,20.0,18.0,-100.00,West,270,7.0,14.0,90,0.00,,,0.00,1.000000,,2013-01-07 01:53:00,
2013-01-06 19:02:00,20.0,18.0,-100.00,West,270,7.0,14.0,90,0.00,,,0.00,1.000000,,2013-01-07 02:02:00,
2013-01-06 19:32:00,20.0,17.0,-100.00,West,261,5.0,11.0,89,0.00,,,0.00,0.000000,,2013-01-07 02:32:00,
2013-01-06 19:43:00,20.0,17.0,-100.00,West,261,5.0,11.0,89,0.00,,,0.00,0.000000,,2013-01-07 02:43:00,
2013-01-06 19:53:00,20.0,17.0,-100.00,West,261,5.0,11.0,89,0.00,,,0.00,0.000000,,2013-01-07 02:53:00,
2013-01-06 20:02:00,20.0,17.0,-100.00,West,261,5.0,11.0,89,0.00,,,0.00,0.000000,,2013-01-07 03:02:00,
2013-01-06 20:33:00,20.0,17.0,-100.00,West,265,6.0,10.0,89,0.00,,,0.00,0.000000,,2013-01-07 03:33:00,
2013-01-06 20:43:00,20.0,17.0,-100.00,West,265,6.0,10.0,89,0.00,,,0.00,0.000000,,2013-01-07 03:43:00,
2013-01-06 20:52:00,20.0,17.0,-100.00,West,265,6.0,10.0,89,0.00,,,0.00,0.000000,,2013-01-07 03:52:00,
2013-01-06 21:02:00,20.0,17.0,-100.00,West,265,6.0,10.0,89,0.00,,,0.00,0.000000,,2013-01-07 04:02:00,
2013-01-06 21:33:00,19.0,16.0,-100.00,WSW,250,7.0,13.0,88,0.00,,,-99.99,0.000000,,2013-01-07 04:33:00,
2013-01-06 21:42:00,19.0,16.0,-100.00,WSW,250,7.0,13.0,88,0.00,,,-99.99,0.000000,,2013-01-07 04:42:00,
2013-01-06 21:52:00,19.0,16.0,-100.00,WSW,250,7.0,13.0,88,0.00,,,-99.99,0.000000,,2013-01-07 04:52:00,
2013-01-06 22:02:00,19.0,16.0,-100.00,WSW,250,7.0,13.0,88,0.00,,,-99.99,0.000000,,2013-01-07 05:02:00,
2013-01-06 22:33:00,19.0,16.0,-100.00,WSW,248,11.0,15.0,88,0.00,,,0.00,0.000000,,2013-01-07 05:33:00,
2013-01-06 22:43:00,19.0,16.0,-100.00,WSW,248,11.0,15.0,88,0.00,,,0.00,0.000000,,2013-01-07 05:43:00,
2013-01-06 22:52:00,19.0,16.0,-100.00,WSW,248,11.0,15.0,88,0.00,,,0.00,0.000000,,2013-01-07 05:52:00,
2013-01-06 23:02:00,19.0,16.0,-100.00,WSW,248,11.0,15.0,88,0.00,,,0.00,0.000000,,2013-01-07 06:02:00,
2013-01-06 23:32:00,18.0,15.0,-100.00,SW,214,9.0,15.0,87,0.00,,,0.00,0.000000,,2013-01-07 06:32:00,
2013-01-06 23:42:00,18.0,15.0,-100.00,SW,214,9.0,15.0,87,0.00,,,0.00,0.000000,,2013-01-07 06:42:00,
2013-01-06 23:52:00,18.0,15.0,-100.00,SW,214,9.0,15.0,87,0.00,,,0.00,0.000000,,2013-01-07 06:52:00,